CW5461 Weather Reports


Display with metric or nautical units.
time (UTC)temp
F
wind
direction
speed
MPH
gust
MPH
rain 1hr
in
rain 24hr
in
rain mn
in
humidity
%
barometer
mb
20260507060504 49 249 0.0 2.0 0.00 0.36 0.00 90 1004.4
20260507060013 49 271 1.0 2.0 0.00 0.36 0.00 90 1004.4
20260507055504 49 238 0.0 2.0 0.00 0.36 0.00 90 1004.3
20260507055002 49 275 0.0 3.0 0.00 0.36 0.00 90 1004.3
20260507054507 49 275 0.0 3.0 0.00 0.36 0.00 90 1004.4
20260507054004 49 288 0.0 7.0 0.00 0.36 0.00 90 1004.3
20260507053505 49 303 0.0 7.0 0.00 0.36 0.00 90 1004.5
20260507053007 49 165 1.0 4.0 0.00 0.36 0.00 90 1004.4
20260507052504 49 196 0.0 6.0 0.00 0.36 0.00 91 1004.4
20260507052007 49 252 0.0 7.0 0.00 0.36 0.00 91 1004.2
20260507051513 49 223 0.0 7.0 0.00 0.36 0.00 91 1004.1
20260507051005 50 234 1.0 6.0 0.00 0.36 0.00 91 1004.2
20260507050506 50 277 1.0 6.0 0.00 0.36 0.00 91 1004.2
20260507050020 50 269 2.0 10.0 0.00 0.36 0.00 91 1004.4
20260507045504 50 273 1.0 10.0 0.00 0.36 0.00 91 1004.4
20260507045005 50 282 2.0 7.0 0.00 0.36 0.00 91 1004.3
20260507044508 50 236 1.0 7.0 0.00 0.36 0.00 91 1004.3
20260507044010 50 277 1.0 5.0 0.00 0.36 0.00 91 1004.1
20260507043504 50 264 2.0 5.0 0.00 0.36 0.00 91 1004.2
20260507043007 51 313 2.0 5.0 0.00 0.36 0.00 91 1004.2
20260507042507 51 271 1.0 8.0 0.00 0.36 0.00 91 1004.3
20260507042007 51 253 1.0 8.0 0.00 0.36 0.00 91 1004.3
20260507041513 51 236 3.0 8.0 0.00 0.36 0.00 91 1004.1
20260507041006 51 259 2.0 6.0 0.00 0.36 0.00 91 1003.9
20260507040507 51 235 2.0 6.0 0.00 0.36 0.00 91 1003.9
20260507040009 52 274 1.0 10.0 0.00 0.36 0.00 91 1003.7
20260507035504 52 275 1.0 10.0 0.00 0.36 0.36 91 1003.8
20260507035008 53 258 1.0 7.0 0.00 0.36 0.36 91 1003.9
20260507034509 53 16 2.0 9.0 0.01 0.36 0.36 91 1004.0
20260507034003 54 280 1.0 9.0 0.01 0.36 0.36 91 1003.9
20260507033506 55 257 1.0 10.0 0.02 0.36 0.36 91 1003.7
20260507033013 56 265 1.0 12.0 0.03 0.36 0.36 92 1003.8
20260507032504 56 342 3.0 12.0 0.03 0.36 0.36 92 1003.8
20260507032004 57 255 0.0 8.0 0.03 0.36 0.36 92 1003.8
20260507031509 57 231 3.0 8.0 0.03 0.36 0.36 92 1003.7
20260507031009 57 252 2.0 7.0 0.03 0.36 0.36 92 1003.6
20260507030506 57 313 1.0 7.0 0.03 0.36 0.36 92 1003.5
20260507030012 58 238 3.0 9.0 0.03 0.36 0.36 92 1003.4
20260507025507 58 208 3.0 9.0 0.03 0.36 0.36 92 1003.3
20260507025005 58 220 1.0 9.0 0.03 0.36 0.36 92 1003.3
20260507024511 58 251 3.0 8.0 0.02 0.35 0.35 92 1003.3
20260507024007 58 256 5.0 8.0 0.02 0.35 0.35 92 1003.1
20260507023506 58 161 3.0 8.0 0.01 0.34 0.34 92 1003.2
20260507023013 58 207 3.0 8.0 0.00 0.33 0.33 92 1003.3
20260507022506 58 229 3.0 6.0 0.00 0.33 0.33 92 1003.2
20260507022007 58 217 3.0 6.0 0.00 0.33 0.33 92 1003.3
20260507021514 58 221 2.0 10.0 0.00 0.33 0.33 92 1003.3
20260507021006 58 219 2.0 10.0 0.00 0.33 0.33 92 1003.3
20260507020504 58 224 6.0 9.0 0.00 0.33 0.33 92 1003.4
20260507020012 58 244 2.0 8.0 0.00 0.33 0.33 92 1003.4
20260507015506 58 245 4.0 10.0 0.00 0.33 0.33 92 1003.5
20260507015008 58 225 2.0 11.0 0.00 0.33 0.33 92 1003.5
20260507014513 58 205 4.0 12.0 0.00 0.33 0.33 92 1003.6
20260507014007 58 238 5.0 12.0 0.00 0.33 0.33 92 1003.6
20260507013505 58 266 1.0 9.0 0.00 0.33 0.33 92 1003.5
20260507013017 58 236 4.0 10.0 0.00 0.33 0.33 92 1003.5
20260507012505 58 240 6.0 11.0 0.00 0.33 0.33 92 1003.5
20260507012007 58 202 3.0 11.0 0.00 0.33 0.33 92 1003.6
20260507011528 58 145 2.0 10.0 0.00 0.33 0.33 92 1003.5
20260507011009 58 202 3.0 10.0 0.00 0.33 0.33 92 1003.7
20260507010513 58 229 3.0 9.0 0.00 0.33 0.33 92 1003.6
20260507010008 58 218 2.0 9.0 0.00 0.33 0.33 92 1003.6
20260507005508 58 213 3.0 7.0 0.00 0.33 0.33 92 1003.6
20260507005005 58 204 3.0 7.0 0.00 0.33 0.33 92 1003.7
20260507004516 58 248 2.0 7.0 0.00 0.33 0.33 92 1003.6
20260507004006 58 264 4.0 7.0 0.00 0.33 0.33 92 1003.6
20260507003506 58 187 3.0 8.0 0.00 0.33 0.33 92 1003.6
20260507003016 58 206 3.0 8.0 0.00 0.33 0.33 92 1003.6
20260507002509 58 161 1.0 7.0 0.00 0.33 0.33 92 1003.5
20260507002011 58 236 2.0 8.0 0.00 0.33 0.33 92 1003.5
20260507001524 58 188 2.0 8.0 0.00 0.33 0.33 92 1003.5
20260507001007 58 256 2.0 7.0 0.00 0.33 0.33 92 1003.6
20260507000506 58 190 1.0 7.0 0.00 0.33 0.33 92 1003.4
20260507000019 58 159 2.0 7.0 0.00 0.33 0.33 92 1003.5
20260506235508 58 176 3.0 8.0 0.00 0.33 0.33 92 1003.4
20260506235007 58 230 2.0 7.0 0.00 0.33 0.33 92 1003.4
20260506234510 58 221 2.0 8.0 0.00 0.33 0.33 92 1003.6
20260506234008 58 209 3.0 8.0 0.00 0.33 0.33 92 1003.5
20260506233507 58 208 2.0 7.0 0.00 0.33 0.33 92 1003.5
20260506233019 58 224 3.0 11.0 0.00 0.33 0.33 92 1003.5
20260506232509 58 244 4.0 10.0 0.00 0.33 0.33 92 1003.6
20260506232006 59 242 1.0 8.0 0.00 0.33 0.33 92 1003.6
20260506231515 59 220 2.0 8.0 0.00 0.33 0.33 92 1003.5
20260506231006 59 281 3.0 8.0 0.00 0.33 0.33 92 1003.5
20260506230508 59 215 2.0 6.0 0.01 0.33 0.33 92 1003.7
20260506230020 59 211 3.0 9.0 0.01 0.33 0.33 92 1003.6
20260506225513 59 152 2.0 11.0 0.01 0.33 0.33 92 1003.7
20260506225013 59 207 4.0 11.0 0.02 0.33 0.33 92 1003.8
20260506224520 59 236 4.0 10.0 0.02 0.33 0.33 92 1003.7
20260506224009 59 152 3.0 10.0 0.03 0.33 0.33 92 1003.8
20260506223506 59 234 2.0 10.0 0.03 0.33 0.33 92 1003.8
20260506223018 59 257 2.0 10.0 0.04 0.33 0.33 92 1003.9
20260506222509 59 276 3.0 14.0 0.04 0.33 0.33 92 1004.0
20260506222009 59 212 5.0 14.0 0.05 0.33 0.33 92 1004.0
20260506221519 59 178 2.0 9.0 0.05 0.33 0.33 92 1003.9
20260506221010 59 142 3.0 9.0 0.06 0.33 0.33 92 1003.9
20260506220507 59 153 4.0 8.0 0.06 0.32 0.32 92 1004.0
20260506220020 59 216 2.0 9.0 0.07 0.32 0.32 92 1004.0
20260506215510 59 192 4.0 14.0 0.07 0.32 0.32 92 1003.9
20260506215008 59 154 4.0 14.0 0.07 0.31 0.31 92 1004.1
20260506214522 59 230 4.0 13.0 0.07 0.31 0.31 92 1004.2
20260506214008 59 149 6.0 13.0 0.07 0.30 0.30 92 1004.2
20260506213508 59 171 4.0 11.0 0.09 0.30 0.30 92 1004.3
20260506213022 59 193 4.0 11.0 0.08 0.29 0.29 92 1004.2
20260506212508 59 215 4.0 6.0 0.10 0.29 0.29 92 1004.3
20260506212013 59 211 2.0 7.0 0.10 0.28 0.28 92 1004.4
20260506211522 59 134 1.0 7.0 0.11 0.28 0.28 92 1004.5
20260506211011 60 116 1.0 4.0 0.10 0.27 0.27 92 1004.5
20260506210504 60 161 1.0 4.0 0.10 0.26 0.26 92 1004.5
20260506210009 60 179 1.0 4.0 0.09 0.25 0.25 92 1004.5
20260506205504 60 159 2.0 5.0 0.09 0.25 0.25 92 1004.6
20260506205003 60 174 0.0 5.0 0.09 0.24 0.24 92 1004.6
20260506204507 60 180 0.0 5.0 0.09 0.24 0.24 92 1004.6
20260506204002 60 186 1.0 5.0 0.08 0.23 0.23 91 1004.7
20260506203507 60 153 0.0 5.0 0.06 0.21 0.21 91 1004.7
20260506203034 60 171 2.0 5.0 0.07 0.21 0.21 91 1004.8
20260506202507 60 186 0.0 3.0 0.05 0.19 0.19 91 1004.8
20260506202009 60 217 1.0 4.0 0.05 0.18 0.18 91 1004.7
20260506201519 60 216 1.0 4.0 0.04 0.17 0.17 91 1004.6
20260506201010 60 153 1.0 4.0 0.05 0.17 0.17 91 1004.6
20260506200508 60 123 1.0 3.0 0.05 0.16 0.16 91 1004.5
20260506200021 61 132 0.0 3.0 0.05 0.16 0.16 91 1004.6
20260506195508 61 162 1.0 3.0 0.06 0.16 0.16 91 1004.6
20260506195003 61 157 0.0 2.0 0.06 0.15 0.15 91 1004.6
20260506194505 61 157 0.0 2.0 0.06 0.15 0.15 91 1004.7
20260506194006 61 157 0.0 2.0 0.08 0.15 0.15 90 1004.8
20260506193503 61 157 0.0 2.0 0.08 0.15 0.15 90 1004.9
20260506193010 61 163 0.0 3.0 0.07 0.14 0.14 90 1005.0
20260506192507 61 234 0.0 5.0 0.08 0.14 0.14 90 1005.0
20260506192009 61 238 1.0 8.0 0.09 0.13 0.13 90 1005.1
20260506191517 61 177 2.0 8.0 0.12 0.13 0.13 90 1005.2
20260506191007 61 215 2.0 4.0 0.12 0.12 0.12 90 1005.4
20260506190507 61 163 0.0 4.0 0.11 0.11 0.11 90 1005.5
20260506190020 61 222 1.0 4.0 0.11 0.11 0.11 90 1005.8
20260506185512 61 159 0.0 2.0 0.10 0.10 0.10 90 1005.5
20260506185009 61 189 0.0 2.0 0.09 0.09 0.09 89 1005.4
20260506184526 61 186 0.0 3.0 0.09 0.09 0.09 89 1005.3
20260506184007 62 157 0.0 5.0 0.07 0.07 0.07 88 1005.5
20260506183506 62 126 1.0 7.0 0.07 0.07 0.07 87 1005.4
20260506183011 62 238 4.0 7.0 0.07 0.07 0.07 86 1005.4
20260506182507 62 238 1.0 8.0 0.06 0.06 0.06 85 1005.5
20260506182006 63 257 2.0 8.0 0.04 0.04 0.04 80 1005.6
20260506181513 65 257 2.0 15.0 0.01 0.01 0.01 75 1005.5
20260506181007 66 224 1.0 15.0 0.00 0.00 0.00 73 1005.1
20260506180509 67 183 3.0 9.0 0.00 0.00 0.00 66 1004.9
20260506180025 68 124 3.0 9.0 0.00 0.00 0.00 65 1004.9
20260506175509 68 201 2.0 9.0 0.00 0.00 0.00 65 1004.8
20260506175012 69 69 1.0 9.0 0.00 0.00 0.00 64 1004.9
20260506174522 69 223 4.0 8.0 0.00 0.00 0.00 64 1004.9
20260506174009 68 183 2.0 8.0 0.00 0.00 0.00 65 1004.9
20260506173512 68 132 2.0 7.0 0.00 0.00 0.00 66 1005.0
20260506173016 68 110 2.0 8.0 0.00 0.00 0.00 65 1005.1
20260506172505 69 150 3.0 8.0 0.00 0.00 0.00 63 1005.2
20260506172012 69 119 2.0 7.0 0.00 0.00 0.00 64 1005.2
20260506171515 69 128 1.0 6.0 0.00 0.00 0.00 66 1005.2
20260506171011 69 86 2.0 6.0 0.00 0.00 0.00 65 1005.3
20260506170506 69 101 1.0 5.0 0.00 0.00 0.00 64 1005.3
20260506170017 69 130 2.0 8.0 0.00 0.00 0.00 64 1005.4
20260506165511 70 146 3.0 13.0 0.00 0.00 0.00 61 1005.5
20260506165008 71 236 5.0 17.0 0.00 0.00 0.00 59 1005.6
20260506164528 70 257 6.0 17.0 0.00 0.00 0.00 60 1005.6
20260506164014 71 176 7.0 13.0 0.00 0.00 0.00 60 1005.7
20260506163508 70 213 4.0 12.0 0.00 0.00 0.00 62 1005.7
20260506163031 70 171 5.0 11.0 0.00 0.00 0.00 61 1005.9
20260506162510 71 161 4.0 9.0 0.00 0.00 0.00 61 1005.9
20260506162009 71 172 3.0 12.0 0.00 0.00 0.00 61 1006.1
20260506161513 70 205 3.0 12.0 0.00 0.00 0.00 63 1006.2
20260506161011 70 170 4.0 11.0 0.00 0.00 0.00 62 1006.4
20260506160510 70 237 5.0 11.0 0.00 0.00 0.00 62 1006.5
20260506160012 70 148 5.0 10.0 0.00 0.00 0.00 62 1006.6
20260506155507 70 235 3.0 11.0 0.00 0.00 0.00 62 1006.7
20260506155011 70 193 4.0 11.0 0.00 0.00 0.00 62 1006.8
20260506154521 70 294 2.0 11.0 0.00 0.00 0.00 61 1007.0
20260506154011 70 213 5.0 11.0 0.00 0.00 0.00 61 1007.1
20260506153511 71 203 5.0 15.0 0.00 0.00 0.00 62 1007.2
20260506153021 70 233 7.0 15.0 0.00 0.00 0.00 62 1007.1
20260506152512 70 227 4.0 11.0 0.00 0.00 0.00 65 1007.0
20260506152010 69 233 4.0 11.0 0.00 0.00 0.00 64 1006.9
20260506151529 69 235 5.0 15.0 0.00 0.00 0.00 66 1006.9
20260506151013 68 196 7.0 15.0 0.00 0.00 0.00 66 1007.0
20260506150509 68 273 4.0 14.0 0.00 0.00 0.00 66 1007.2
20260506150010 68 277 4.0 14.0 0.00 0.00 0.00 66 1007.1
20260506145510 68 242 4.0 14.0 0.00 0.00 0.00 66 1007.0
20260506145010 68 257 5.0 12.0 0.00 0.00 0.00 67 1006.9
20260506144518 68 245 6.0 11.0 0.00 0.00 0.00 67 1007.0
20260506144012 68 236 5.0 15.0 0.00 0.00 0.00 67 1007.0
20260506143508 68 243 5.0 15.0 0.00 0.00 0.00 66 1007.1
20260506143025 68 217 6.0 13.0 0.00 0.00 0.00 67 1006.9
20260506142514 68 116 4.0 7.0 0.00 0.00 0.00 66 1006.8
20260506142010 69 94 3.0 12.0 0.00 0.00 0.00 66 1006.8
20260506141523 68 240 4.0 12.0 0.00 0.00 0.00 68 1006.9
20260506141014 67 188 4.0 11.0 0.00 0.00 0.00 68 1006.9
20260506140512 67 236 7.0 11.0 0.00 0.00 0.00 67 1006.9
20260506140028 67 178 4.0 12.0 0.00 0.00 0.00 69 1006.9
20260506135507 66 215 4.0 12.0 0.00 0.00 0.00 69 1007.1
20260506135008 66 254 4.0 10.0 0.00 0.00 0.00 69 1007.1
20260506134528 66 255 5.0 10.0 0.00 0.00 0.00 71 1007.2
20260506134012 65 151 3.0 9.0 0.00 0.00 0.00 70 1007.2
20260506133511 65 173 4.0 10.0 0.00 0.00 0.00 71 1007.3
20260506133020 65 242 4.0 11.0 0.00 0.00 0.00 71 1007.2
20260506132513 65 226 4.0 11.0 0.00 0.00 0.00 69 1007.2
20260506132011 66 186 3.0 10.0 0.00 0.00 0.00 70 1007.2
20260506131532 65 229 4.0 12.0 0.00 0.00 0.00 71 1007.3
20260506131010 65 230 5.0 12.0 0.00 0.00 0.00 71 1007.4
20260506130514 65 223 3.0 9.0 0.00 0.00 0.00 72 1007.4
20260506130028 65 234 5.0 9.0 0.00 0.00 0.00 72 1007.3
20260506125510 64 235 3.0 11.0 0.00 0.00 0.00 73 1007.3
20260506125009 64 250 5.0 14.0 0.00 0.00 0.00 72 1007.2
20260506124529 64 148 3.0 14.0 0.00 0.00 0.00 72 1007.2
20260506124010 64 224 4.0 12.0 0.00 0.00 0.00 72 1007.2
20260506123511 65 177 4.0 11.0 0.00 0.00 0.00 71 1007.2
20260506123027 64 229 5.0 12.0 0.00 0.00 0.00 73 1007.3
20260506122506 64 203 4.0 12.0 0.00 0.00 0.00 72 1007.4
20260506122010 63 233 4.0 11.0 0.00 0.00 0.00 73 1007.4
20260506121522 63 205 3.0 11.0 0.00 0.00 0.00 74 1007.4
20260506121005 63 231 1.0 10.0 0.00 0.00 0.00 75 1007.4
20260506120507 63 225 3.0 10.0 0.00 0.00 0.00 74 1007.5
20260506120014 62 207 3.0 9.0 0.00 0.00 0.00 75 1007.6
20260506115511 62 249 4.0 11.0 0.00 0.00 0.00 75 1007.5
20260506115012 62 169 2.0 11.0 0.00 0.00 0.00 75 1007.7
20260506114511 62 284 4.0 11.0 0.00 0.00 0.00 74 1007.7
20260506114008 62 192 4.0 11.0 0.00 0.00 0.00 75 1007.6
20260506113511 62 197 2.0 9.0 0.00 0.00 0.00 76 1007.7
20260506113030 61 257 2.0 4.0 0.00 0.00 0.00 76 1007.8
20260506112510 61 193 1.0 7.0 0.00 0.00 0.00 76 1007.7
20260506112009 61 192 3.0 11.0 0.00 0.00 0.00 76 1007.6
20260506111503 61 312 2.0 11.0 0.00 0.00 0.00 76 1007.8
20260506111004 61 231 4.0 10.0 0.00 0.00 0.00 76 1007.9
20260506110505 60 226 3.0 9.0 0.00 0.00 0.00 77 1007.7
20260506110005 60 209 2.0 9.0 0.00 0.00 0.00 77 1007.5
20260506105506 60 255 3.0 8.0 0.00 0.00 0.00 76 1007.7
20260506105009 60 225 3.0 8.0 0.00 0.00 0.00 76 1007.7
20260506104508 60 193 2.0 8.0 0.00 0.00 0.00 77 1007.6
20260506104006 60 193 2.0 7.0 0.00 0.00 0.00 77 1007.7
20260506103509 60 227 1.0 7.0 0.00 0.00 0.00 77 1007.8
20260506103014 60 224 3.0 9.0 0.00 0.00 0.00 77 1008.0
20260506102509 60 258 3.0 9.0 0.00 0.00 0.00 77 1007.8
20260506102011 60 230 2.0 6.0 0.00 0.00 0.00 77 1008.0
20260506101533 60 194 2.0 8.0 0.00 0.00 0.00 77 1008.0
20260506101008 60 209 3.0 9.0 0.00 0.00 0.00 77 1008.0
20260506100504 59 227 4.0 9.0 0.00 0.00 0.00 77 1008.0
20260506100008 59 293 2.0 5.0 0.00 0.00 0.00 77 1007.8
20260506095510 59 238 3.0 7.0 0.00 0.00 0.00 77 1007.8
20260506095006 59 235 3.0 8.0 0.00 0.00 0.00 77 1007.8
20260506094519 59 226 2.0 8.0 0.00 0.00 0.00 77 1007.8
20260506094008 59 218 1.0 5.0 0.00 0.00 0.00 77 1007.8
20260506093507 59 239 2.0 4.0 0.00 0.00 0.00 77 1007.9
20260506093018 59 242 1.0 5.0 0.00 0.00 0.00 77 1007.8
20260506092508 59 189 1.0 5.0 0.00 0.00 0.00 76 1007.8
20260506092013 59 223 1.0 5.0 0.00 0.00 0.00 76 1007.8
20260506091522 59 240 1.0 4.0 0.00 0.00 0.00 75 1007.7
20260506091008 59 215 0.0 5.0 0.00 0.00 0.00 75 1007.7
20260506090507 59 222 1.0 5.0 0.00 0.00 0.00 74 1007.6
20260506090026 59 218 1.0 8.0 0.00 0.00 0.00 74 1007.6
20260506085508 59 240 1.0 9.0 0.00 0.00 0.00 74 1007.6
20260506085004 59 211 2.0 9.0 0.00 0.00 0.00 74 1007.7
20260506084511 59 219 2.0 7.0 0.00 0.00 0.00 74 1007.5
20260506084005 59 189 2.0 5.0 0.00 0.00 0.00 73 1007.5
20260506083505 59 236 1.0 5.0 0.00 0.00 0.00 73 1007.5
20260506083012 59 212 2.0 8.0 0.00 0.00 0.00 73 1007.4
20260506082508 60 207 3.0 8.0 0.00 0.00 0.00 72 1007.4
20260506082005 60 220 3.0 6.0 0.00 0.00 0.00 72 1007.3
20260506081523 60 236 2.0 6.0 0.00 0.00 0.00 72 1007.3
20260506081010 60 244 2.0 8.0 0.00 0.00 0.00 71 1007.4
20260506080510 60 198 2.0 8.0 0.00 0.00 0.00 71 1007.4
20260506073508 61 247 4.0 9.0 0.00 0.00 0.00 69 1007.2
20260506073027 61 268 4.0 8.0 0.00 0.00 0.00 68 1007.2
20260506072507 61 173 3.0 11.0 0.00 0.00 0.00 68 1007.1
20260506072007 62 233 4.0 11.0 0.00 0.00 0.00 67 1007.1
20260506071518 62 242 5.0 11.0 0.00 0.00 0.00 67 1007.1
20260506071013 62 236 5.0 10.0 0.00 0.00 0.00 68 1006.9
20260506070508 62 240 4.0 10.0 0.00 0.00 0.00 68 1006.9
20260506062505 62 215 4.0 10.0 0.00 0.00 0.00 66 1007.1
20260506062006 62 256 2.0 9.0 0.00 0.00 0.00 67 1007.0
20260506061516 62 197 4.0 11.0 0.00 0.00 0.00 66 1006.9
20260506061006 62 192 4.0 11.0 0.00 0.00 0.00 66 1006.9